Location: Ripley
(48.3812°N, 115.4473°W)
Time: 02:15:08
(UTC+00:00)

RS-15 - Pass Details

Date: 03 July 2022
Orbit: 1881 x 2163 km, 64.8° (Epoch: 10 August)

Event Time Altitude Azimuth Distance (km) Brightness Sun altitude
Rises 09:15:49 0° 320° (NW) 5,698 10.9 -15.9°
Reaches altitude 10° 09:20:24 10° 307° (NW) 4,677 10.2 -15.6°
Maximum altitude 09:28:43 22° 263° (W) 3,720 9.2 -15.1°
Enters shadow 09:34:53 14° 227° (SW) 4,205 9.2 -14.6°
